{"data":{"norad_id":62813,"epoch":"2026-09-21T22:49:27.899904Z","epoch_age_seconds":42702,"freshness":"FRESH","line1":"1 62813U 25018H   26264.95101736  .00004067  00000+0  13149-3 0  9995","line2":"2 62813  53.1570 114.6667 0001096  99.9277 260.1850 15.34388749 93267","mean_motion":15.34388749,"eccentricity":0.0001096,"inclination_deg":53.157,"raan_deg":114.6667,"arg_perigee_deg":99.9277,"mean_anomaly_deg":260.185,"bstar":0.00013149,"rev_number":9326,"period_min":93.848446225801,"perigee_km":461.98692099907,"apogee_km":463.48644050989,"semimajor_km":6840.8736807545,"source":"CELESTRAK","updated_at":"2026-09-22T09:00:49.667772Z"}}